Regional Weather Roundup
Issued by NWS

Home | Current Version | Previous Version | Text Only | Print | Product List | Glossary On
Versions: 1 2 3 4 5 6 7 8 9 10 11 12 13 14 15 16 17 18 19 20 21 22 23 24 25 26 27 28 29 30 31 32 33 34 35 36 37 38 39 40 41 42 43 44 45 46 47 48 49 50
000
ASPQ40 PGUM 261212
RWRPQ
WEATHER ROUNDUP FOR THE MARIANAS AND MICRONESIA
NATIONAL WEATHER SERVICE TIYAN GU
1000 PM CHST WED APR 26 2017

GUZ001>004-261300-
MARIANA ISLANDS-

CITY           SKY/WX    TMP DP  RH WIND       PRES   REMARKS
GUAM AIRPORT   HVY RAIN  75  75 100 SE6G18    29.97R VSB 1
ANDERSEN AFB   NOT AVBL
ROTA AIRPORT   NOT AVBL
TINIAN AP      NOT AVBL
SAIPAN AP      MOCLDY    81  75  83 E8        29.95R

$$

PMZ161-261300-
REPUBLIC OF PALAU-

CITY           SKY/WX    TMP DP  RH WIND       PRES   REMARKS
KOROR AP       MOCLDY    82  75  78 S3        29.81R
KOROR WSO      MOCLDY    82  77  83 S6        29.83R HX  91

$$

PMZ171>174-261300-
FEDERATED STATES OF MICRONESIA-

CITY           SKY/WX    TMP DP  RH WIND       PRES   REMARKS
YAP AIRPORT    LGT RAIN  79  77  94 SE10      29.85R
CHUUK AP       CLOUDY    82  79  89 VRB6      29.87S HX  93
POHNPEI AP     CLOUDY    81  77  89 E6        29.86R
POHNPEI WSO    CLOUDY    82  75  78 E6        29.91R
KOSRAE AP      NOT AVBL

$$

PMZ181-261300-
REPUBLIC OF THE MARSHALL ISLANDS-

CITY           SKY/WX    TMP DP  RH WIND       PRES   REMARKS
KWAJALEIN AP   PTCLDY    82  72  69 E15       29.89S
MAJURO AP      NOT AVBL
MAJURO WSO     CLOUDY    82  77  83 E16       29.85F HX  91

$$




USA.gov is the U.S. government's official web portal to all federal, state and local government web resources and services.